Liberty, KS

5:36 PM CDT on August 29, 2016 (GMT -0500)
Coffeyville Municipal

Weather History for KCFV - January, 2013

Change the Weather History Date:

Friday, January 25, 2013

  Actual Average Record
Temperature  
Mean Temperature 40 °F -  
Max Temperature 48 °F 43 °F 64 °F (2005)
Min Temperature 33 °F 23 °F 16 °F (2001)
Degree Days  
Heating Degree Days 24    
Moisture  
Dew Point 21 °F    
Average Humidity 51    
Maximum Humidity 72    
Minimum Humidity 37    
Precipitation  
Precipitation 0.00 in - - ()
Sea Level Pressure  
Sea Level Pressure 30.23 in    
Wind  
Wind Speed 5 mph (NNW)    
Max Wind Speed 8 mph    
Max Gust Speed -    
Visibility 10 miles    
Events      
Averages and records for this station are not official NWS values.
T = Trace of Precipitation, MM = Missing Value Source: NWS Daily Summary

Daily Weather History Graph

Daily Weather History Graph

Search for Another Location

Airport or City:

Trip Planner

Search our weather history database for the weather conditions in past years. The results will help you decide how hot, cold, wet, or windy it might be!

Date:

Astronomy

Jan. 25, 2013 Rise Set
Actual Time 7:29 AM CST 5:39 PM CST
Civil Twilight 7:02 AM CST 6:07 PM CST
Nautical Twilight 6:30 AM CST 6:39 PM CST
Astronomical Twilight 5:59 AM CST 7:09 PM CST
Moon 4:37 PM CST (1/25) 6:09 AM CST (1/25)
Length of Visible Light 11h 05m
Length of Day
10h 10m
Waxing Gibbous, 98% of the Moon is Illuminated
Jan 25
Waxing Gibbous
Jan 26
Full
Feb 3
Last Quarter
Feb 10
New
Feb 17
First Quarter

Hourly Weather History & Observations

Time (CST) Temp. Windchill Dew Point Humidity Pressure Visibility Wind Dir Wind Speed Gust Speed Precip Events Conditions
12:52 AM 33.1 °F 28.7 °F 19.0 °F 56% 30.17 in 10.0 mi NW 4.6 mph - N/A   Overcast
1:52 AM 33.1 °F 26.9 °F 19.0 °F 56% 30.17 in 10.0 mi NNW 6.9 mph - N/A   Overcast
2:52 AM 33.1 °F 27.7 °F 19.0 °F 56% 30.18 in 10.0 mi NNW 5.8 mph - N/A   Overcast
3:52 AM 33.1 °F 28.7 °F 19.0 °F 56% 30.17 in 10.0 mi NNW 4.6 mph - N/A   Overcast
5:52 AM 33.1 °F 28.7 °F 18.0 °F 54% 30.19 in 10.0 mi NNW 4.6 mph - N/A   Overcast
6:52 AM 33.1 °F 26.9 °F 19.0 °F 56% 30.21 in 10.0 mi NNW 6.9 mph - N/A   Overcast
7:52 AM 33.1 °F 26.1 °F 18.0 °F 54% 30.23 in 10.0 mi NNW 8.1 mph - N/A   Overcast
8:33 AM 33.8 °F 28.6 °F 17.6 °F 52% 30.23 in 10.0 mi NNW 5.8 mph - N/A   Scattered Clouds
8:52 AM 34.0 °F 27.2 °F 18.0 °F 52% 30.25 in 10.0 mi NNW 8.1 mph - N/A   Clear
9:52 AM 36.0 °F 31.1 °F 19.0 °F 50% 30.26 in 10.0 mi NNW 5.8 mph - N/A   Clear
10:52 AM 39.9 °F 35.1 °F 21.0 °F 47% 30.26 in 10.0 mi North 6.9 mph - N/A   Clear
11:52 AM 42.1 °F 40.2 °F 21.0 °F 43% 30.27 in 10.0 mi North 3.5 mph - N/A   Clear
12:52 PM 44.1 °F 39.5 °F 21.9 °F 42% 30.26 in 10.0 mi North 8.1 mph - N/A   Clear
1:52 PM 46.9 °F - 21.9 °F 37% 30.24 in 10.0 mi Variable 5.8 mph - N/A   Clear
2:52 PM 46.9 °F - 21.9 °F 37% 30.22 in 10.0 mi North 3.5 mph - N/A   Clear
3:52 PM 48.0 °F - 23.0 °F 37% 30.22 in 10.0 mi Calm Calm - N/A   Clear
4:52 PM 46.9 °F - 25.0 °F 42% 30.22 in 10.0 mi South 3.5 mph - N/A   Clear
5:52 PM 44.1 °F - 24.1 °F 45% 30.22 in 10.0 mi Calm Calm - N/A   Clear
6:52 PM 42.1 °F 40.2 °F 25.0 °F 51% 30.24 in 10.0 mi South 3.5 mph - N/A   Clear
7:52 PM 39.9 °F - 25.0 °F 55% 30.24 in 10.0 mi Calm Calm - N/A   Clear
8:52 PM 39.0 °F - 25.0 °F 57% 30.25 in 10.0 mi Calm Calm - N/A   Clear
9:52 PM 37.9 °F - 24.1 °F 57% 30.26 in 10.0 mi Calm Calm - N/A   Clear
10:52 PM 33.1 °F 28.7 °F 25.0 °F 72% 30.27 in 10.0 mi East 4.6 mph - N/A   Clear
11:52 PM 36.0 °F - 25.0 °F 64% 30.29 in 10.0 mi Calm Calm - N/A   Clear